Lapse_Rate
5.3 5.1 6.4 5.7 5.0 4.9 5.0 5.2 5.7 6.4 7.0 7.2 6.9 7.0 7.4 7.8 8.0 8.3 8.1 6.6 5.3 6.4 5.9 5.1 5.4 6.7 7.0 7.0 7.4 7.0 6.9 6.6 6.3 5.9 6.1 6.0 5.8 5.8 5.7 5.7 5.6 5.6 5.6 5.9
4.9 5.6 6.0 5.1 4.8 5.0 4.9 4.9 5.9 6.2 6.4 6.6 6.7 6.5 7.4 7.6 7.8 7.7 6.9 6.7 5.3 5.2 6.0 6.1 5.4 6.6 6.8 7.0 7.1 7.1 7.1 6.4 6.2 6.1 6.2 6.0 5.8 5.8 6.0 6.0 5.7 5.6 5.7 5.6
5.4 7.1 6.0 5.3 5.3 5.5 5.6 5.1 5.6 5.4 6.4 6.3 6.0 6.0 6.8 7.5 7.5 7.7 7.3 6.8 6.3 5.7 5.4 5.0 5.6 5.1 6.5 7.2 7.2 7.1 6.7 6.2 6.3 6.2 5.9 5.7 5.5 5.6 5.7 5.7 5.8 5.9 5.6 5.4
5.4 6.8 5.9 5.4 5.5 5.9 5.2 6.0 5.2 4.8 5.5 5.5 5.8 6.0 6.9 7.6 7.3 7.4 7.3 6.6 6.3 6.2 4.9 5.2 5.0 4.9 7.2 6.9 7.2 7.0 6.6 6.3 6.2 6.0 5.7 5.7 6.1 6.2 6.2 6.2 6.2 6.1 5.8 5.7
6.2 6.5 5.8 5.5 6.3 5.9 6.2 5.9 5.7 5.0 5.4 5.6 5.9 6.4 7.9 7.3 6.7 7.2 7.0 7.4 7.1 6.8 6.0 5.9 5.3 5.0 7.0 7.0 6.6 6.6 6.6 6.4 6.1 5.9 5.7 6.0 6.2 6.1 6.2 6.3 6.3 5.9 6.0 5.7
6.7 6.8 6.2 6.7 6.4 6.2 6.1 6.0 5.9 5.5 5.1 5.6 6.2 6.1 6.6 6.3 7.0 7.2 7.7 8.6 8.0 7.0 6.3 5.7 5.6 5.3 6.9 7.0 7.0 6.9 6.6 6.3 6.0 5.8 5.8 6.0 6.1 6.0 6.1 6.1 6.2 6.0 6.0 5.9
5.9 7.1 6.5 6.1 5.6 6.0 6.2 6.1 6.0 6.2 6.2 6.5 6.2 6.3 6.8 6.6 6.8 7.0 8.1 7.9 7.4 7.3 6.4 5.5 5.8 6.2 7.0 7.0 7.0 6.8 6.7 6.4 5.9 5.8 5.8 6.0 5.9 6.1 6.2 6.2 6.2 6.0 6.1 6.2
4.5 5.5 6.6 6.0 6.1 5.8 6.3 6.2 6.7 6.7 6.7 6.6 6.8 6.3 6.8 6.1 6.3 6.7 6.4 6.2 6.9 6.7 7.0 6.3 5.9 6.2 6.8 6.9 6.9 6.9 6.6 6.5 6.2 6.1 6.0 6.0 6.1 6.2 6.3 6.3 6.2 5.9 6.1 6.1
4.6 4.9 5.9 6.8 6.9 6.4 6.7 6.9 6.6 6.3 7.1 6.6 6.8 7.5 6.5 6.6 5.8 5.4 5.6 5.3 5.7 5.9 6.7 7.2 6.1 5.8 6.9 6.9 6.9 6.9 6.8 6.8 6.6 6.4 6.3 6.2 6.0 6.1 6.5 6.5 6.3 5.9 6.1 6.2
4.6 4.1 5.2 5.8 6.2 7.1 6.7 6.6 6.5 6.8 6.6 7.0 7.6 7.3 6.5 6.4 5.7 5.7 5.4 5.0 5.6 5.5 6.8 6.6 5.7 5.3 7.0 6.8 6.8 6.8 6.8 7.0 6.9 6.7 6.4 6.2 6.3 6.3 6.4 6.3 6.1 6.1 6.2 6.3
4.7 4.2 4.7 5.3 6.1 6.5 6.7 6.6 6.2 6.4 6.9 6.7 6.5 6.8 6.7 6.8 6.6 5.7 6.1 6.1 6.1 6.2 6.2 6.1 6.4 5.3 6.6 6.7 6.7 6.7 6.6 6.6 6.5 6.4 6.4 6.3 6.2 6.2 6.0 6.2 5.9 6.1 6.4 6.2
4.5 4.3 4.0 5.0 6.5 5.8 6.0 6.4 6.3 6.6 6.4 7.0 7.1 6.7 6.9 6.8 6.8 6.5 6.1 6.8 6.1 7.0 7.0 6.6 6.9 6.5 6.7 6.6 6.7 6.4 6.5 6.5 6.5 6.5 6.4 6.4 6.2 6.1 6.0 6.3 6.3 6.3 6.3 6.0
4.4 4.3 4.2 5.1 6.0 5.5 5.5 5.9 6.0 6.1 6.4 6.6 6.8 7.3 7.0 6.9 6.9 6.7 6.0 6.2 6.0 5.7 6.4 6.4 6.4 6.7 7.0 7.0 6.6 6.4 6.5 6.6 6.7 6.7 6.5 6.3 6.2 6.2 6.4 6.7 6.5 6.2 6.1 6.0
4.3 4.2 4.4 4.5 5.0 5.5 5.1 5.3 5.6 5.7 5.6 6.6 6.9 7.5 7.4 6.9 6.8 6.7 6.5 6.1 6.3 6.0 6.2 6.6 6.7 6.3 6.4 6.6 6.5 6.8 6.8 6.7 6.9 6.7 6.6 6.5 6.4 6.4 6.7 6.7 6.4 6.2 6.1 6.0
4.4 4.3 4.3 4.3 4.5 5.1 5.1 5.0 5.4 5.4 5.7 5.7 6.5 6.7 7.0 6.7 6.2 6.4 6.3 6.0 5.8 6.0 6.3 6.4 6.4 6.5 6.2 5.6 5.7 6.2 6.5 6.1 6.4 6.5 6.9 7.0 6.8 6.8 6.6 6.5 6.5 6.3 6.3 6.2
4.7 4.7 5.1 4.7 5.3 5.5 4.9 5.1 5.3 5.3 5.7 5.8 6.1 6.6 7.1 6.8 6.3 6.0 6.4 6.2 6.1 6.0 6.2 6.4 6.1 6.2 6.1 6.4 6.9 6.6 6.3 5.5 6.2 6.3 6.8 7.2 7.1 7.1 7.0 6.9 6.7 6.8 6.6 6.3
5.5 5.9 6.2 5.5 6.2 6.2 5.5 6.2 5.8 5.5 5.3 5.9 5.8 6.7 6.9 6.3 6.2 6.4 6.4 6.4 5.8 6.4 6.0 6.4 6.3 6.0 6.2 6.3 6.3 6.3 6.1 5.5 5.8 6.1 6.6 6.9 6.9 6.9 6.9 6.9 6.8 6.8 6.7 6.5
6.1 6.5 6.6 6.7 6.7 5.8 6.7 6.2 5.9 5.9 5.4 5.6 5.6 5.8 6.1 6.1 6.2 6.3 6.3 6.1 5.9 5.8 6.2 5.8 6.3 6.2 6.3 6.4 6.1 6.0 6.0 5.9 5.5 5.8 6.2 6.5 6.9 6.9 7.1 6.9 7.1 7.0 6.9 6.8
6.5 6.5 6.8 7.0 7.1 7.2 7.4 7.0 6.2 6.1 5.6 5.5 5.4 5.6 6.2 5.8 6.4 6.3 6.1 6.3 6.0 5.8 6.1 6.1 5.3 5.6 6.1 6.2 6.0 5.9 5.9 5.5 6.1 5.8 5.9 6.1 6.6 6.9 7.0 7.0 7.2 7.2 7.1 7.0
7.1 6.4 6.6 6.8 6.9 6.6 7.0 6.8 6.3 5.9 5.6 5.2 5.3 5.0 5.7 6.1 6.1 5.7 5.6 5.7 6.0 6.1 6.1 6.2 6.2 5.9 5.8 5.7 5.9 5.9 5.7 5.7 5.8 5.7 5.9 6.2 6.4 6.4 6.8 6.9 7.2 7.2 7.0 6.8
7.0 6.6 6.3 6.3 6.6 6.9 6.9 7.1 6.8 6.2 5.5 5.3 5.1 5.1 4.8 5.2 4.8 4.9 5.1 5.2 5.5 5.7 6.3 6.3 6.3 6.2 6.5 6.1 5.5 5.0 6.3 6.2 6.3 6.3 6.3 6.7 6.8 6.9 7.1 7.4 7.2 7.2 6.8 6.9
6.9 7.0 6.7 6.4 6.5 6.4 6.9 6.7 6.5 6.0 5.6 5.3 5.1 4.8 4.7 4.5 4.1 4.4 4.7 4.9 5.0 5.2 5.3 5.8 6.2 6.3 6.3 6.4 6.8 6.7 6.7 6.8 6.7 6.7 6.8 6.9 6.9 7.0 7.1 7.2 7.2 7.2 7.0 6.6
7.0 7.3 7.2 7.0 6.9 7.1 7.0 6.8 6.4 6.2 5.8 5.7 5.4 5.0 5.0 5.0 4.6 4.3 4.4 4.7 5.0 5.1 5.1 5.2 5.4 5.6 5.9 6.0 6.2 6.6 6.7 6.8 6.8 6.9 7.0 7.0 7.2 7.3 7.4 7.3 7.3 7.3 6.7 6.5
7.0 7.2 7.0 6.9 7.1 7.0 6.8 6.8 6.6 6.3 5.9 5.7 5.5 5.3 5.2 5.1 5.3 5.3 5.3 5.0 4.8 4.8 5.1 5.3 5.3 5.4 5.6 5.7 5.9 6.1 6.3 6.6 6.7 6.8 6.8 6.9 7.1 7.1 7.1 7.2 7.1 6.9 6.4 6.7
6.9 6.9 7.0 6.9 7.0 6.8 6.6 6.4 6.5 6.3 6.1 5.8 5.4 5.4 5.3 5.3 5.3 5.4 5.5 5.4 5.0 4.9 4.8 4.8 5.0 5.2 5.3 5.4 5.5 5.7 6.0 6.1 6.3 6.4 6.5 6.6 6.6 6.7 6.8 6.7 6.4 6.3 6.3 6.6
6.9 6.7 6.7 6.7 6.7 6.6 6.4 6.4 6.3 6.1 6.1 6.2 5.9 5.4 5.1 5.1 5.1 5.0 4.8 5.2 5.3 5.2 5.1 4.9 4.8 4.9 4.9 5.0 5.1 5.4 5.6 5.8 5.9 6.0 6.1 5.9 6.0 5.9 5.8 6.0 6.3 6.4 6.5 6.5
Wind_Speed
9 7 12 14 17 21 20 21 27 28 23 24 23 24 24 22 22 26 26 24 14 17 18 17 20 28 25 20 20 20 20 18 14 11 10 9 7 8 7 7 15 14 14 16
5 15 19 16 17 20 21 23 31 30 22 20 16 21 25 27 28 21 16 14 17 18 14 23 24 24 23 25 20 19 20 18 15 12 11 10 7 5 5 7 13 13 15 13
12 12 10 13 15 18 21 23 28 27 22 18 19 26 28 25 18 18 19 16 16 19 14 20 23 32 30 24 22 20 21 18 16 17 11 9 5 6 4 5 7 8 16 14
10 17 15 8 13 12 21 22 30 29 15 11 6 9 15 20 22 17 19 15 17 14 16 19 21 27 25 24 20 21 20 19 16 17 14 17 10 11 9 7 7 6 14 13
9 13 13 6 16 6 14 13 19 19 17 13 19 8 6 15 22 22 21 18 18 18 16 16 28 23 22 21 20 20 20 18 18 18 15 13 12 9 7 8 10 7 6 12
22 9 12 12 12 8 7 6 14 14 10 6 11 6 3 11 20 19 20 23 22 17 14 14 24 22 19 19 19 19 20 18 18 16 17 16 16 13 11 10 9 8 7 8
13 11 9 10 11 4 2 6 4 3 2 4 2 4 8 10 6 16 23 22 18 15 15 12 18 18 20 21 20 18 20 18 18 16 18 16 16 17 17 13 11 11 9 7
5 6 3 5 6 9 12 9 4 6 6 8 6 4 3 9 7 15 14 12 12 12 14 13 18 19 19 20 19 20 20 17 19 17 16 16 16 12 12 13 10 10 10 10
5 5 16 19 9 1 4 4 6 5 9 5 5 5 6 2 7 19 7 9 13 17 18 17 18 19 16 17 18 19 20 17 19 17 14 15 15 14 13 16 12 10 10 10
3 9 10 9 6 9 8 6 3 2 5 5 5 5 9 17 12 12 5 9 14 16 20 18 13 10 11 15 14 16 17 18 17 18 14 12 14 13 12 11 13 12 10 11
5 5 8 11 5 6 3 4 3 3 2 2 4 2 7 13 9 9 6 4 7 9 14 15 16 13 13 14 14 14 14 15 15 15 15 11 12 13 11 11 10 9 10 12
3 4 6 14 24 12 4 6 7 3 4 4 3 4 5 6 6 8 2 7 3 9 11 13 13 11 10 12 13 13 13 14 14 15 15 14 12 12 12 14 13 10 11 10
4 2 7 9 5 6 4 10 14 9 5 6 3 3 2 8 10 8 9 2 10 10 7 7 11 10 10 10 7 13 14 14 14 14 14 14 9 10 13 13 13 12 10 10
2 4 8 10 13 17 17 18 16 11 5 5 8 9 3 8 9 10 9 6 3 7 12 8 5 7 7 8 9 6 9 15 15 16 15 15 14 13 12 11 11 13 13 14
3 5 9 13 17 19 20 19 18 15 15 9 8 13 12 5 5 5 5 7 7 2 5 7 9 8 7 6 9 9 8 14 15 17 16 15 15 14 13 13 13 12 12 13
3 5 5 12 16 19 22 20 20 20 20 18 17 22 11 6 4 6 6 7 6 5 2 4 5 6 7 8 8 8 10 11 10 13 15 13 12 13 13 14 13 13 13 13
4 2 2 11 9 10 9 8 10 12 14 15 15 14 10 4 10 11 11 11 10 9 10 9 9 8 6 1 3 6 10 7 8 12 11 11 12 12 12 13 13 13 14 13
9 5 3 5 3 5 7 5 5 5 14 14 10 10 11 6 9 10 10 9 9 9 9 9 9 8 8 8 7 2 2 6 9 7 8 9 11 12 10 10 11 12 10 12
9 4 3 3 3 9 15 6 5 6 4 15 12 13 9 4 6 8 8 7 6 6 7 6 7 8 7 7 7 5 4 2 3 6 6 7 7 8 10 11 10 7 7 5
2 3 2 1 4 3 4 2 5 2 1 11 13 14 15 13 4 3 7 6 6 5 5 6 6 6 7 9 8 6 5 3 4 4 4 4 2 5 9 9 8 4 6 6
2 2 5 5 4 6 5 9 5 1 3 5 8 11 12 7 3 3 6 6 6 5 7 6 5 5 6 6 6 4 4 5 4 4 4 4 4 5 5 5 3 6 6 7
4 4 3 2 3 6 10 6 4 4 4 5 6 8 6 9 6 6 7 7 7 8 7 7 6 7 8 8 5 4 6 4 5 5 5 5 5 4 4 8 7 7 9 10
2 3 1 3 2 3 4 4 10 11 10 12 11 9 6 5 5 6 6 8 7 8 7 7 6 5 7 8 6 5 4 4 5 6 6 6 6 6 5 5 7 7 8 8
2 1 2 2 3 4 11 10 13 13 11 12 13 10 8 6 7 7 6 6 6 6 6 6 7 7 7 6 7 5 5 5 5 7 6 5 6 7 7 6 4 5 5 6
1 1 3 3 5 3 11 12 11 13 12 14 14 13 13 11 8 9 8 7 6 4 5 5 4 4 5 5 6 5 5 5 7 6 6 6 6 7 8 7 5 5 4 5
5 5 3 2 5 4 4 9 14 12 15 14 13 13 11 10 11 11 8 8 7 6 5 5 5 4 5 5 6 6 5 5 6 6 5 5 5 5 6 7 8 16 14 17
Wind_Direction
187 219 236 248 236 246 265 272 272 269 271 262 264 272 271 272 243 241 256 231 205 228 240 243 261 259 186 171 167 168 158 160 149 146 151 155 161 161 160 146 157 151 156 153
241 247 251 246 246 249 258 268 270 273 268 266 285 268 275 268 242 231 233 205 206 208 226 259 261 235 172 168 168 165 158 158 150 158 155 164 159 144 138 140 149 150 150 164
238 249 291 290 249 252 250 252 264 263 289 280 282 276 263 255 236 225 229 214 210 208 199 249 255 235 167 163 164 170 155 159 159 159 155 156 121 118 113 135 146 153 156 165
244 248 257 251 254 248 271 248 256 267 278 268 173 295 242 222 230 212 214 207 217 200 200 243 271 187 161 157 157 160 154 163 163 160 165 158 161 158 162 162 148 150 153 162
250 281 286 245 242 186 256 280 276 262 267 279 272 254 270 182 215 210 213 209 215 211 206 199 266 148 156 158 162 159 157 165 167 168 163 161 158 157 151 152 148 158 156 167
253 254 274 251 269 188 272 291 266 259 271 245 274 219 166 178 217 217 220 216 205 196 212 205 227 155 159 160 155 157 160 168 168 164 162 165 164 153 153 159 162 172 170 170
313 263 225 210 263 152 180 286 289 291 253 302 287 247 273 210 194 222 220 212 206 190 174 160 188 173 160 162 161 161 163 170 166 167 168 167 166 164 165 166 175 172 175 174
292 322 157 165 239 291 284 255 338 314 329 298 343 262 350 338 339 294 267 172 184 166 153 159 182 165 167 164 167 167 166 168 170 172 173 172 172 171 171 174 176 183 182 179
309 255 330 311 290 238 329 326 286 282 271 283 280 306 341 75 343 323 248 181 173 159 151 171 193 170 166 165 167 169 169 172 177 174 176 178 176 174 175 180 174 180 177 179
311 295 259 294 295 244 218 324 326 245 326 315 325 11 331 336 339 327 110 162 148 156 154 172 169 177 159 158 161 171 177 177 177 177 180 187 178 178 169 167 179 181 180 174
269 236 302 316 247 291 208 267 244 303 272 302 326 344 331 321 325 328 109 104 140 139 149 162 151 159 161 157 165 169 174 179 181 178 184 189 182 179 168 170 174 179 172 175
82 300 282 272 270 288 313 297 297 271 336 279 211 286 345 328 356 13 341 140 172 147 150 150 134 135 140 160 167 172 176 182 177 184 183 185 192 177 175 180 182 156 167 167
337 277 313 312 47 10 340 341 351 310 275 259 276 264 112 5 26 17 21 107 148 142 151 133 145 154 152 148 172 181 183 185 176 180 179 184 179 168 183 177 173 172 174 181
110 250 246 270 287 305 298 299 299 302 284 297 278 304 3 36 35 19 17 23 146 151 166 151 162 171 199 147 168 191 202 189 183 184 182 184 185 183 184 176 177 180 191 195
233 258 263 269 285 290 289 286 288 272 271 275 292 301 318 37 68 75 62 24 40 59 135 176 170 172 179 193 197 186 207 216 186 187 188 193 193 192 187 180 183 191 194 199
234 268 288 279 279 271 276 279 266 260 260 263 272 278 291 328 86 50 43 64 37 7 359 142 170 168 171 198 199 213 213 225 185 187 187 189 187 189 187 184 187 187 195 197
223 250 277 282 279 327 296 270 275 263 260 250 250 268 283 11 49 32 24 26 39 19 24 19 29 35 44 133 165 207 202 199 197 186 183 179 184 188 189 189 182 190 198 198
249 247 255 280 332 245 246 14 323 313 33 12 358 360 13 76 85 67 37 18 11 2 8 359 8 2 359 3 1 339 147 209 185 176 170 174 177 183 186 192 192 192 196 201
228 245 251 266 238 299 308 30 12 346 48 3 4 6 352 342 129 42 32 26 20 355 1 353 356 341 335 17 4 345 42 85 176 160 157 168 163 176 177 190 189 176 179 181
0 255 254 307 260 264 44 341 336 350 185 360 1 7 3 10 67 346 7 12 18 10 1 349 354 3 11 359 352 5 4 51 72 65 79 65 71 178 182 182 157 143 169 155
154 201 233 245 259 280 329 317 305 252 3 346 3 0 2 29 67 356 20 13 13 21 7 1 30 37 16 350 359 33 33 36 9 39 65 73 78 92 80 87 87 105 100 100
175 188 198 199 233 261 357 22 36 340 351 335 341 353 352 343 14 16 8 13 11 10 13 15 33 26 8 5 14 46 50 7 34 52 60 58 60 67 104 114 107 108 115 112
283 201 345 217 253 58 36 51 38 13 5 352 344 351 346 351 8 14 18 11 12 7 7 0 15 38 30 17 14 60 22 30 54 64 63 61 67 71 70 105 124 125 130 134
288 150 222 30 3 347 51 51 23 0 354 351 350 349 7 0 10 9 18 18 19 10 4 359 20 22 17 28 42 49 44 51 70 80 73 72 81 77 69 68 66 98 124 135
10 334 275 249 42 22 77 45 8 350 1 359 350 349 0 357 7 1 353 9 17 15 5 4 30 44 34 31 45 50 46 56 73 70 70 71 71 77 82 72 77 80 57 106
358 2 337 13 36 316 317 12 10 5 357 348 342 342 349 350 348 348 343 350 347 1 11 7 27 51 40 42 39 34 69 70 73 78 74 77 82 79 82 91 86 75 86 100